Regional Weather Roundup
Issued by NWS

Home | Current Version | Previous Version | Graphics & Text | Print | Product List | Glossary On
Versions: 1 2 3 4 5 6 7 8 9 10 11 12 13 14 15 16 17 18 19 20 21 22 23 24 25 26 27 28 29 30 31 32 33 34 35 36 37 38 39 40 41 42 43 44 45 46 47 48 49 50
000
ASUS43 KIND 171459
RWRIN

WEATHER ROUNDUP FOR INDIANA
NATIONAL WEATHER SERVICE INDIANAPOLIS IN
1000 AM EST TUE JAN 17 2017

NOTE: "FAIR" INDICATES FEW OR NO CLOUDS BELOW 12,000 FEET WITH NO
SIGNIFICANT WEATHER AND/OR OBSTRUCTIONS TO VISIBILITY.

* - STATION DOES NOT REPORT WEATHER SUCH AS PRECIPITATION OR FOG.

+ - STATION NOT QUALITY CONTROLLED BY THE NATIONAL WEATHER SERVICE.
    USE DATA WITH CAUTION...ESPECIALLY DEWPOINT AND RELATIVE
    HUMIDITY OBSERVATIONS.

INZ001>003-010>013-019-020-171600-
NORTHWEST INDIANA

CITY           SKY/WX    TMP DP  RH WIND       PRES   REMARKS
GARY /AIRPORT/ CLOUDY    41  39  93 W12G23    29.85R
KNOX *+        CLOUDY    41  34  75 W14G21    29.84R
MONTICELLO +   CLOUDY    44  42  93 SW12      29.87R

$$

LMZ046-743>745-171600-
SOUTHERN LAKE MICHIGAN

STATION/POSITION TIME  TEMP    WIND        PRES    WAVE
                       AIR SEA DIR/SP/G            HT
                 (UTC) (F)     (DEG/KT/KT) (MB)    (FT)
BURNS HARBOR     1440   39     240/ 12/ 15 1011.2R

$$

INZ004-005-014>016-021>024-171600-
NORTH CENTRAL INDIANA

CITY           SKY/WX    TMP DP  RH WIND       PRES   REMARKS
GOSHEN         CLOUDY    44  41  89 W16       29.81R
SOUTH BEND     FOG       40  40 100 SW13      29.83R VSB 1/4

$$

INZ006>009-017-018-025>027-171600-
NORTHEAST INDIANA

CITY           SKY/WX    TMP DP  RH WIND       PRES   REMARKS
ANGOLA *+      CLOUDY    46  37  71 W12       29.77R
FORT WAYNE     PTSUNNY   48  45  89 W17       29.83R
KENDALLVILLE + CLOUDY    47  47 100 W16G29    29.79R

$$

INZ028-029-035-036-043>045-051>053-171600-
WEST CENTRAL INDIANA

CITY           SKY/WX    TMP DP  RH WIND       PRES   REMARKS
CRAWFORDSVL +  CLOUDY    44  43  96 SW14G20   29.91R
LAFAYETTE      CLOUDY    44  43  96 W13       29.89R
TERRE HAUTE    CLOUDY    47  39  74 W15G22    29.95R

$$

INZ030>032-037>040-046>048-054>057-064-065-171600-
CENTRAL INDIANA

CITY           SKY/WX    TMP DP  RH WIND       PRES   REMARKS
COLUMBUS       CLOUDY    52  52 100 W9        29.92R
INDIANAPOLIS   CLOUDY    50  46  86 W13       29.90R
-EAGLE CREEK   CLOUDY    50  45  83 W9G18     29.89R
KOKOMO +       CLOUDY    48  45  89 W16G23    29.88R
MT COMFORT *+  CLOUDY    50  48  93 W12       29.90R
SHELBYVILLE    CLOUDY    53  48  83 W12       29.90R

$$

INZ033-034-041-042-049-050-058-059-171600-
EAST CENTRAL INDIANA

CITY           SKY/WX    TMP DP  RH WIND       PRES   REMARKS
MUNCIE         CLOUDY    52  47  83 W16G25    29.86R

$$

INZ060-061-067>069-081>083-085>088-171600-
SOUTHWEST INDIANA

CITY           SKY/WX    TMP DP  RH WIND       PRES   REMARKS
EVANSVILLE     CLOUDY    51  45  79 NW8       30.00R
HUNTINGBURG *+ CLOUDY    52  48  87 W15       29.97S

$$

INZ062-063-066-070>080-084-089>092-171600-
SOUTH CENTRAL AND SOUTHEAST INDIANA

CITY           SKY/WX    TMP DP  RH WIND       PRES   REMARKS
BLOOMINGTON    CLOUDY    51  44  77 W15G21    29.92R
MADISON *+     CLOUDY    59  54  82 SW7       29.94S
SEYMOUR +      CLOUDY    55  50  82 W8        29.93R

$$




USA.gov is the U.S. government's official web portal to all federal, state and local government web resources and services.